STARLINK-32004 (60151 NORAD) Tracking and Keplerian Element Data

This shows tracking and keplerian element data for the satellite.

Feedback or suggestion? Click here.




ElementValue
Catalog60151
NameSTARLINK-32004
Epoch Orbit1781
Epoch Day286.44870031
Epoch Year2024
RAAN188.3551
Inclination53.16
Eccentricity9.58E-05
Argument of Perigee74.5777
Mean Anonmoly285.5333
Mean Motion15.39649405
Decay Rate1.078E-05
L11 60151U 24120S 24286.44870031 .00001078 00000+0 36879-4 0 9993
L22 60151 53.1600 188.3551 0000958 74.5777 285.5333 15.39649405 17812



Live tracking and technical data element details for STARLINK-32004 (NORAD 60151). STARLINK-32004 can be tracked NOW for your location showing map with azimuth and elevation plus other details from your city location.







IsCatalogInMostPopularTable: catalog: 60151, numindb: 8
Update: records affected: 1



GetName: 60151 STARLINK-32004

Hit Count: updated at: Thu, 23 Jan 2025 14:35:53 GMT